Location: Street
(51.1247°N, 2.7429°W)
Time: 23:22:34
(UTC+00:00)

Altair - Visible Passes

Search period start: 25 November 2020 00:00
Search period end: 05 December 2020 00:00
Orbit: 1502 x 1682 km, 47.2° (Epoch: 25 November)

Date Brightness Start Highest point End Pass type
(mag) Time Alt. Az. Time Alt. Az. Time Alt. Az.
25 Nov 9.0 02:43:14 21° SE 02:43:14 21° SE 02:45:49 10° SE visible
25 Nov 8.4 04:41:17 26° SSW 04:41:17 26° SSW 04:47:29 10° S visible
26 Nov 9.4 02:19:51 13° SE 02:19:51 13° SE 02:20:44 10° SE visible
26 Nov 8.6 04:17:55 25° SSW 04:17:55 25° SSW 04:22:40 10° SSE visible
26 Nov 9.2 19:29:52 10° S 19:30:58 12° SSE 19:30:58 12° SSE visible
27 Nov 8.8 03:54:35 21° S 03:54:35 21° S 03:57:48 10° SSE visible
27 Nov 9.0 19:05:21 10° SSE 19:07:38 14° SSE 19:07:38 14° SSE visible
27 Nov 9.4 21:04:48 10° SW 21:05:41 13° SW 21:05:41 13° SW visible
28 Nov 9.1 03:31:17 16° SSE 03:31:17 16° SSE 03:32:56 10° SSE visible
28 Nov 8.9 18:40:55 10° SSE 18:44:16 15° SE 18:44:16 15° SE visible
28 Nov 9.0 20:39:48 10° SW 20:42:19 20° SSW 20:42:19 20° SSW visible
29 Nov 9.5 03:08:00 10° SSE 03:08:00 10° SSE 03:08:02 10° SSE visible
29 Nov 8.9 18:16:38 10° SSE 18:20:40 14° SE 18:20:53 13° SE visible
29 Nov 8.6 20:14:49 10° SSW 20:18:55 26° SSW 20:18:55 26° SSW visible
30 Nov 9.0 17:52:34 10° SE 17:55:42 12° SE 17:57:26 11° ESE visible
30 Nov 8.3 19:49:52 10° SSW 19:55:28 32° S 19:55:28 32° S visible
30 Nov 9.5 21:52:45 10° WSW 21:53:31 13° WSW 21:53:31 13° WSW visible
01 Dec 9.1 17:29:04 10° SE 17:30:44 11° ESE 17:32:23 10° ESE visible
01 Dec 8.1 19:24:55 10° SSW 19:31:59 35° SSE 19:31:59 35° SSE visible
01 Dec 9.1 21:27:37 10° WSW 21:30:01 20° WSW 21:30:01 20° WSW visible
02 Dec 8.1 19:00:01 10° SSW 19:08:07 34° SE 19:08:27 34° SE visible
02 Dec 8.7 21:02:30 10° WSW 21:06:29 29° SW 21:06:29 29° SW visible
03 Dec 8.2 18:35:06 10° SSW 18:43:04 32° SE 18:44:52 29° ESE visible
03 Dec 8.3 20:37:23 10° WSW 20:42:54 39° SW 20:42:54 39° SW visible
04 Dec 8.3 18:10:14 10° SSW 18:18:01 30° SE 18:21:15 24° ESE visible
04 Dec 7.9 20:12:16 10° WSW 20:19:17 49° SSW 20:19:17 49° SSW visible
04 Dec 9.5 22:16:23 10° W 22:17:19 14° W 22:17:19 14° W visible
